Weather in Safonovo

Russia / Smolensk Oblast     55°06′22″N   33°14′16″E
temp.,
°C
wind,
m/s
gust,
m/s
humid.,
%
clouds,
%
prec.,
mm/h
press.,
hPa
HPBL,
m
27 november, sat
sat2700:00+1s4997100 0.0 1007400
03:00+1sse41097100 0.2 1006478
06:00+1sse61295100 0.0 1004555
09:00+1se61391100 0.1 1002521
12:000se71697100 1.1 999683
15:00+1sse61598100 3.1 996822
18:00+2sse61498100 2.3 995748
21:00+4ssw61395100 3.2 995776
28 november, sun
sun2800:00+3sw61297100 0.1 996822
03:00+2sw61297100 0.3 999825
06:00+2sw61195100 0.1 1000814
09:00+2sw61187100 0.1 1002704
12:00+2sw51080100 0.0 1004941
15:00+2sw4884100 0.0 1005471
18:000s3792100 0.0 1007172
21:000sse3697100 0.1 1007209
29 november, mon
mon2900:00+1ese4993100 1.6 1006274
03:00+2ese51092100 2.1 1003315
06:00+3se41098100 1.7 1001391
09:00+4se41098100 1.8 999304
12:00+5se41198100 0.1 996321
15:00+5ese41098100 3.7 991339
18:00+4e3899100 2.3 988307
21:00+5se2799100 2.8 984230
30 november, tue
tue3000:00+5s3899100 2.1 981254
03:00+5wsw61195100 2.6 979633
06:00+2sw71396100 0.0 980776
09:00+1sw81488100 0.2 981971
12:00−1sw81386100 0.1 982995
15:00−1sw81286100 0.4 9821022
18:00−2wsw81384100 0.3 9851028
21:00−3w81382100 0.4 9881138
1 december, wed
wed100:00−3w61393100 0.3 9901221
03:00−2w71178100 0.8 9921135
06:00−3w71178100 0.1 9931129
09:00−4w6108094 0.1 996932
12:00−3w697350 0.1 9971042
15:00−4wnw587379 0.1 998912
18:00−5wnw478162 0.0 1000664
21:00−6w358673 0.0 1002380